Regional Weather Roundup
Issued by NWS Little Rock, AR

Home | Current Version | Previous Version | Graphics & Text | Print | Product List | Glossary On
Versions: 1 2 3 4 5 6 7 8 9 10 11 12 13 14 15 16 17 18 19 20 21 22 23 24 25 26 27 28 29 30 31 32 33 34 35 36 37 38 39 40 41 42 43 44 45 46 47 48 49 50
000
ASUS44 KLZK 240305
RWRLZK

WEATHER ROUNDUP FOR ARKANSAS
NATIONAL WEATHER SERVICE LITTLE ROCK AR
1000 PM CDT WED JUL 23 2014

NOTE: "FAIR" INDICATES FEW OR NO CLOUDS BELOW 12,000 FEET WITH NO
SIGNIFICANT WEATHER AND/OR OBSTRUCTIONS TO VISIBILITY.

ARZ001-003-010-029-240400-
NORTHWEST ARKANSAS

CITY           SKY/WX    TMP DP  RH WIND       PRES   REMARKS
FAYETTEVILLE   PTCLDY    70  66  87 SW8       30.10R
FORT SMITH     MOCLDY    72  69  90 E3        30.07S
BENTONVILLE    CLEAR     73  64  73 SW5       30.11R
ROGERS         CLEAR     74  66  76 SW5       30.11R
SILOAM SPGS    PTCLDY    70  63  78 SW6       30.11S
HIGHFILL       CLEAR     72  67  84 SW5       30.10R
$$

ARZ004-005-016-240400-
NORTH CENTRAL ARKANSAS

CITY           SKY/WX    TMP DP  RH WIND       PRES   REMARKS
BATESVILLE     MOCLDY    70  68  94 NW3       30.02S
FLIPPIN        CLEAR     70  70 100 CALM      30.06S
MTN HOME       CLEAR     68  68 100 CALM      30.06S
$$

ARZ040-041-240400-
WEST CENTRAL ARKANSAS

CITY           SKY/WX    TMP DP  RH WIND       PRES   REMARKS
MENA           CLOUDY    70  68  94 CALM      30.07F
MOUNT IDA      CLOUDY    69  68  96 VRB5      30.02S
$$

ARZ009-017-025-026-028-240400-
NORTHEAST ARKANSAS

CITY           SKY/WX    TMP DP  RH WIND       PRES   REMARKS
CORNING        CLOUDY    73  73 100 N3        30.05S
JONESBORO      CLOUDY    71  67  87 E7        30.04R
NEWPORT        MOCLDY    70  69  96 N12       30.03S
WALNUT RIDGE   PTCLDY    72  66  83 N7        30.02S
BLYTHEVILLE    MOCLDY    72  71  97 NW3       30.04S
$$

ARZ022-023-033-042-044-240400-
CENTRAL ARKANSAS

CITY           SKY/WX    TMP DP  RH WIND       PRES   REMARKS
LITTLE ROCK    CLOUDY    71  68  90 CALM      30.00F
N LITTLE ROCK  MOCLDY    70  70  99 NW5       30.00F
HOT SPRINGS      N/A     70  69  97 NW3       30.01
RUSSELLVILLE   MOCLDY    71  69  93 W3        30.04S
CLINTON        FAIR      70  70 100 CALM      30.03F FOG
$$

ARZ036-240400-
EAST ARKANSAS

CITY           SKY/WX    TMP DP  RH WIND       PRES   REMARKS
WEST MEMPHIS   MOCLDY    72  68  87 N7        30.02R
$$

ARZ050-053-066-070-073-240400-
SOUTHWEST ARKANSAS

CITY           SKY/WX    TMP DP  RH WIND       PRES   REMARKS
ARKADELPHIA    FAIR      72  71  96 NE8       29.98R
CAMDEN         CLOUDY    70  68  94 CALM      29.99F
TEXARKANA      CLOUDY    70  68  93 N3        29.98F
EL DORADO      CLOUDY    70  69  97 W3        30.00F
$$

ARZ056-057-069-240400-
SOUTHEAST ARKANSAS

CITY           SKY/WX    TMP DP  RH WIND       PRES   REMARKS
PINE BLUFF     CLOUDY    71  69  93 N5        30.00S
STUTTGART      CLOUDY    72  68  88 NE6       30.02S
MONTICELLO     CLOUDY    72  68  87 W7        29.96F

$$





USA.gov is the U.S. government's official web portal to all federal, state and local government web resources and services.